This demonstration page uses our WeatherBlox Daily Observations layout. Learn more.

Left ArrowRight Arrow

39.01783, -85.05884

Hourly Observations for October 30, 2019

Temp ( °F °C ) Dew Point ( °F °C ) Humidity (%) Winds ( mph kmh ) Pressure ( in mb ) Visibility ( mi km ) Precip ( " mm )
12:52 am 00:52 Cloudy 50 10 47 8.3 89 89 Calm 30.18 1022 7 11 0.00 0.00
1:52 am 01:52 Cloudy 53 11.7 48 8.9 83 83 Calm 30.16 1022 8 13 0.00 0.00
2:52 am 02:52 Cloudy with Mist and Fog 52 11.1 50 10 93 93 Calm 30.17 1022 5 8 0.00 0.00
3:52 am 03:52 Cloudy 53 11.7 50 10 89 89 NNE 6 9 30.16 1021 7 11 0.00 0.00
4:52 am 04:52 Cloudy 53 11.7 50 10 89 89 NE 9 15 30.14 1021 7 11 0.00 0.00
5:30 am 05:30 Cloudy 53 11.7 49 9.4 86 86 NE 8 13 30.15 1021 7 11 0.00 0.00
5:52 am 05:52 Cloudy 53 11.7 49 9.4 86 86 NE 9 15 30.14 1021 7 11 0.00 0.00
6:27 am 06:27 Cloudy 53 11.7 49 9.4 86 86 NE 10 17 30.14 1021 8 13 0.00 0.00
6:52 am 06:52 Cloudy 53 11.7 49 9.4 86 86 NE 10 17 30.13 1020 8 13 0.00 0.00
7:52 am 07:52 Cloudy 53 11.7 49 9.4 86 86 ENE 8 13 30.13 1020 8 13 0.00 0.00
8:52 am 08:52 Cloudy 53 11.7 49 9.4 86 86 ENE 10 17 30.12 1020 7 11 0.00 0.00
9:52 am 09:52 Cloudy with Light Rain 53 11.7 49 9.4 86 86 E 13 20 30.10 1019 5 8 0.00 0.00
10:52 am 10:52 Cloudy with Light Rain 54 12.2 50 10 87 87 E 9 15 30.07 1018 6 10 0.03 0.76
11:44 am 11:44 Cloudy with Light Rain 54 12.2 51 10.6 90 90 E 8 13 30.06 1018 6 10 0.00 0.00
11:52 am 11:52 Cloudy with Mist and Fog 54 12.2 51 10.6 90 90 E 8 13 30.04 1017 6 10 0.00 0.00
12:39 pm 12:39 Cloudy with Mist and Fog 55 12.8 51 10.6 87 87 ENE 8 13 30.04 1017 6 10 0.01 0.25
12:52 pm 12:52 Cloudy with Mist and Fog 55 12.8 52 11.1 90 90 E 9 15 30.03 1017 6 10 0.01 0.25
1:52 pm 13:52 Cloudy with Mist and Fog 56 13.3 52 11.1 87 87 NE 8 13 29.99 1016 6 10 0.00 0.00
2:52 pm 14:52 Cloudy with Light Rain 56 13.3 53 11.7 90 90 ENE 7 11 29.95 1014 4 6 0.00 0.00
3:07 pm 15:07 Cloudy with Rain 56 13.3 53 11.7 90 90 ENE 8 13 29.95 1014 3 4 0.00 0.00
3:42 pm 15:42 Cloudy with Rain 56 13.3 53 11.7 90 90 E 6 9 29.94 1014 2 3 0.07 1.78
3:52 pm 15:52 Cloudy with Heavy Rain 56 13.3 54 12.2 93 93 ENE 7 11 29.93 1014 2 2 0.11 2.79
4:21 pm 16:21 Cloudy with Heavy Rain 56 13.3 54 12.2 93 93 E 9 15 29.93 1014 2 2 0.18 4.57
4:41 pm 16:41 Cloudy with Rain 56 13.3 54 12.2 93 93 ESE 9 15 29.91 1013 2 3 0.27 6.86
4:52 pm 16:52 Cloudy with Rain 56 13.3 54 12.2 93 93 ESE 10 17 29.90 1013 3 4 0.31 7.87
5:28 pm 17:28 Cloudy with Rain 57 13.9 55 12.8 93 93 ESE 6 9 29.89 1012 3 5 0.09 2.29
5:39 pm 17:39 Cloudy with Light Rain 58 14.4 55 12.8 90 90 ESE 6 9 29.88 1012 7 11 0.10 2.54
5:52 pm 17:52 Cloudy with Rain 58 14.4 55 12.8 90 90 Calm 29.87 1012 5 8 0.11 2.79
6:07 pm 18:07 Cloudy with Light Rain 58 14.4 55 12.8 90 90 SE 7 11 29.88 1012 5 8 0.01 0.25
6:52 pm 18:52 Cloudy with Light Rain 58 14.4 56 13.3 93 93 ESE 3 6 29.86 1011 8 13 0.03 0.76
7:52 pm 19:52 Cloudy 58 14.4 56 13.3 93 93 Calm 29.87 1011 9 14 0.00 0.00
8:23 pm 20:23 Cloudy with Light Rain 58 14.4 56 13.3 93 93 Calm 29.86 1011 2 3 0.00 0.00
8:38 pm 20:38 Cloudy with Mist and Fog 58 14.4 56 13.3 93 93 S 3 6 29.86 1011 1 2 0.00 0.00
8:52 pm 20:52 Cloudy with Mist and Fog 58 14.4 56 13.3 93 93 SSE 7 11 29.85 1011 1 1 0.00 0.00
9:35 pm 21:35 Cloudy with Mist and Fog 58 14.4 56 13.3 93 93 S 5 7 29.86 1011 2 2 0.00 0.00
10:12 pm 22:12 Cloudy with Mist and Fog 58 14.4 56 13.3 93 93 WSW 3 6 29.86 1011 2 2 0.00 0.00
10:41 pm 22:41 Mostly Cloudy with Drizzle 58 14.4 56 13.3 93 93 W 3 6 29.86 1011 1 1 0.00 0.00
10:52 pm 22:52 Mostly Cloudy with Drizzle 58 14.4 56 13.3 93 93 W 3 6 29.84 1010 1 1 0.00 0.00
11:52 pm 23:52 Mostly Cloudy with Drizzle 58 14.4 56 13.3 93 93 WSW 3 6 29.84 1011 1 1 0.00 0.00

Powered by AerisWeather